This demonstration page uses our WeatherBlox Daily Observations layout. Learn more.

Left ArrowRight Arrow

38.83388, -104.82136

Hourly Observations for January 19, 2015

Temp ( °F °C ) Dew Point ( °F °C ) Humidity (%) Winds ( mph kmh ) Pressure ( in mb ) Visibility ( mi km ) Precip ( " mm )
12:56 am 00:56 Mostly Cloudy 48 9 13 -10.8 24 24 SSE 6 9 29.96 1015 10 16 N/A
1:56 am 01:56 Mostly Cloudy 46 7.7 16 -8.9 30 30 SSW 6 9 29.96 1015 10 16 N/A
2:56 am 02:56 Mostly Cloudy 43 6.3 16 -8.7 34 34 WSW 6 9 29.99 1016 10 16 N/A
3:56 am 03:56 Mostly Cloudy 49 9.5 12 -11.2 22 22 S 6 9 29.95 1014 10 16 N/A
4:56 am 04:56 Mostly Clear 42 5.8 15 -9.7 32 32 VRB 2 4 30.01 1016 10 16 N/A
5:56 am 05:56 Clear 46 7.8 13 -10.6 26 26 S 9 15 29.99 1016 10 16 N/A
6:56 am 06:56 Clear 43 6.2 14 -10 31 31 WSW 5 7 30.03 1017 10 16 N/A
7:56 am 07:56 Sunny 43 6.3 14 -9.9 31 31 VRB 3 6 30.04 1017 10 16 N/A
8:56 am 08:56 Sunny 45 7.3 14 -9.9 29 29 VRB 1 2 30.03 1017 10 16 N/A
9:56 am 09:56 Sunny 49 9.2 14 -10.2 24 24 S 10 17 30.02 1017 10 16 N/A
10:56 am 10:56 Sunny 50 9.8 16 -8.7 26 26 ESE 12 19 30.01 1016 10 16 N/A
11:56 am 11:56 Sunny 48 8.9 16 -9 27 27 SSE 15 24 30.02 1017 10 16 N/A
12:37 pm 12:37 Sunny 48 9 16 -9 27 27 SE 16 26 29.88 1012 10 16 N/A
12:56 pm 12:56 Sunny 48 8.7 16 -8.9 28 28 SSE 13 20 29.97 1015 10 16 N/A
1:56 pm 13:56 Partly Cloudy 49 9.6 16 -9 26 26 ESE 9 15 29.95 1014 10 16 N/A
2:56 pm 14:56 Sunny 48 8.7 17 -8.5 29 29 SE 7 11 29.96 1015 10 16 N/A
3:56 pm 15:56 Mostly Cloudy 47 8.3 18 -8 31 31 S 2 4 29.93 1014 10 16 N/A
4:56 pm 16:56 Mostly Cloudy 47 8.4 13 -10.3 26 26 S 6 9 29.97 1015 10 16 N/A
5:56 pm 17:56 Cloudy 43 6.3 20 -6.7 39 39 VRB 6 9 30.00 1016 10 16 N/A
6:56 pm 18:56 Cloudy 42 5.4 25 -4.1 51 51 S 10 17 30.03 1017 10 16 N/A
7:56 pm 19:56 Cloudy 42 5.7 23 -5 46 46 SSW 10 17 30.01 1016 10 16 N/A
8:56 pm 20:56 Mostly Cloudy 37 3 25 -3.7 62 62 S 18 30 30.05 1018 10 16 N/A
9:56 pm 21:56 Mostly Cloudy 37 2.7 25 -3.8 63 63 S 15 24 30.02 1017 10 16 N/A
10:56 pm 22:56 Mostly Cloudy 36 2 26 -3.6 67 67 W 6 9 30.01 1016 10 16 N/A
11:56 pm 23:56 Mostly Clear 37 2.5 25 -3.8 64 64 VRB 6 9 29.98 1015 10 16 N/A

Powered by AerisWeather